Location: Kershaw
(34.5481°N, 80.5823°W)
Time: 13:46:26
(UTC+00:00)

Explorer 7 - Pass Details

Date: 12 October 2022
Orbit: 481 x 665 km, 50.3° (Epoch: 26 November)

Event Time Altitude Azimuth Distance (km) Brightness Sun altitude
Rises 11:33:01 0° 224° (SW) 2,880 10.1 0.7°
Reaches altitude 10° 11:35:17 10° 222° (SW) 2,002 9.4 1.2°
Maximum altitude 11:39:54 77° 137° (SE) 669 7.5 2.1°
Drops below altitude 10° 11:44:43 10° 52° (NE) 2,080 10.4 3.1°
Sets 11:47:06 0° 51° (NE) 3,002 11.2 3.5°
